| time (UTC) | temp C | wind direction | speed KPH | gust KPH | rain 1hr cm | rain 24hr cm | rain mn cm | humidity % | barometer mb |
| 20260503030047 | 15 | 84 | 0.0 | 3.2 | 0.00 | 0.00 | 0.00 | 19 | 1012.6 |
| 20260503025551 | 15 | 84 | 0.0 | 3.2 | 0.00 | 0.00 | 0.00 | 19 | 1012.5 |
| 20260503025047 | 15 | 46 | 0.0 | 1.6 | 0.00 | 0.00 | 0.00 | 19 | 1012.6 |
| 20260503024551 | 15 | 46 | 0.0 | 1.6 | 0.00 | 0.00 | 0.00 | 18 | 1012.6 |
| 20260503024048 | 15 | 46 | 0.0 | 1.6 | 0.00 | 0.00 | 0.00 | 18 | 1012.6 |
| 20260503023551 | 15 | 46 | 0.0 | 1.6 | 0.00 | 0.00 | 0.00 | 17 | 1012.6 |
| 20260503023057 | 16 | 46 | 0.0 | 1.6 | 0.00 | 0.00 | 0.00 | 15 | 1012.5 |
| 20260503022546 | 16 | 46 | 0.0 | 3.2 | 0.00 | 0.00 | 0.00 | 15 | 1012.4 |
| 20260503022046 | 16 | 360 | 1.6 | 4.8 | 0.00 | 0.00 | 0.00 | 14 | 1012.5 |
| 20260503021551 | 16 | 360 | 1.6 | 4.8 | 0.00 | 0.00 | 0.00 | 14 | 1012.4 |
| 20260503021048 | 17 | 360 | 1.6 | 3.2 | 0.00 | 0.00 | 0.00 | 15 | 1012.3 |
| 20260503020546 | 17 | 360 | 0.0 | 3.2 | 0.00 | 0.00 | 0.00 | 16 | 1012.3 |
| 20260503020046 | 17 | 63 | 1.6 | 3.2 | 0.00 | 0.00 | 0.00 | 14 | 1012.3 |
| 20260503015547 | 17 | 63 | 0.0 | 3.2 | 0.00 | 0.00 | 0.00 | 13 | 1012.3 |
| 20260503015045 | 17 | 63 | 0.0 | 4.8 | 0.00 | 0.00 | 0.00 | 12 | 1012.3 |
| 20260503014548 | 18 | 213 | 1.6 | 4.8 | 0.00 | 0.00 | 0.00 | 12 | 1012.2 |
| 20260503014049 | 18 | 202 | 1.6 | 6.4 | 0.00 | 0.00 | 0.00 | 12 | 1012.2 |
| 20260503013545 | 18 | 209 | 3.2 | 12.9 | 0.00 | 0.00 | 0.00 | 12 | 1012.2 |
| 20260503013045 | 18 | 360 | 3.2 | 12.9 | 0.00 | 0.00 | 0.00 | 12 | 1012.1 |
| 20260503012545 | 18 | 210 | 4.8 | 9.7 | 0.00 | 0.00 | 0.00 | 11 | 1012.1 |
| 20260503012045 | 19 | 192 | 1.6 | 8.0 | 0.00 | 0.00 | 0.00 | 12 | 1012.0 |
| 20260503011558 | 20 | 200 | 3.2 | 9.7 | 0.00 | 0.00 | 0.00 | 11 | 1012.1 |
| 20260503011048 | 20 | 208 | 4.8 | 9.7 | 0.00 | 0.00 | 0.00 | 11 | 1012.0 |
| 20260503010544 | 20 | 169 | 4.8 | 12.9 | 0.00 | 0.00 | 0.00 | 10 | 1011.9 |
| 20260503010052 | 20 | 360 | 6.4 | 14.5 | 0.00 | 0.00 | 0.00 | 10 | 1011.9 |
| 20260503005547 | 20 | 157 | 9.7 | 14.5 | 0.00 | 0.00 | 0.00 | 10 | 1011.9 |
| 20260503005044 | 20 | 360 | 4.8 | 12.9 | 0.00 | 0.00 | 0.00 | 10 | 1012.0 |
| 20260503004543 | 20 | 360 | 6.4 | 12.9 | 0.00 | 0.00 | 0.00 | 10 | 1012.1 |
| 20260503004043 | 20 | 360 | 6.4 | 9.7 | 0.00 | 0.00 | 0.00 | 10 | 1012.1 |
| 20260503003642 | 20 | 360 | 4.8 | 9.7 | 0.00 | 0.00 | 0.00 | 10 | 1012.0 |
| 20260503003057 | 21 | 94 | 4.8 | 8.0 | 0.00 | 0.00 | 0.00 | 10 | 1012.0 |
| 20260503002540 | 20 | 60 | 1.6 | 14.5 | 0.00 | 0.00 | 0.00 | 9 | 1012.0 |
| 20260503002040 | 21 | 50 | 6.4 | 14.5 | 0.00 | 0.00 | 0.00 | 10 | 1012.2 |
| 20260503001540 | 21 | 66 | 3.2 | 14.5 | 0.00 | 0.00 | 0.00 | 9 | 1012.2 |
| 20260503001039 | 21 | 88 | 8.0 | 19.3 | 0.00 | 0.00 | 0.00 | 9 | 1012.3 |
| 20260503000539 | 21 | 63 | 6.4 | 19.3 | 0.00 | 0.00 | 0.00 | 9 | 1012.2 |
| 20260503000057 | 21 | 100 | 3.2 | 9.7 | 0.00 | 0.00 | 0.00 | 9 | 1012.3 |
| 20260502235538 | 21 | 111 | 3.2 | 14.5 | 0.00 | 0.00 | 0.00 | 9 | 1012.3 |
| 20260502235037 | 21 | 88 | 4.8 | 14.5 | 0.00 | 0.00 | 0.00 | 9 | 1012.4 |
| 20260502234539 | 21 | 90 | 8.0 | 12.9 | 0.00 | 0.00 | 0.00 | 9 | 1012.4 |
| 20260502234037 | 21 | 55 | 3.2 | 14.5 | 0.00 | 0.00 | 0.00 | 9 | 1012.5 |
| 20260502233536 | 21 | 81 | 3.2 | 12.9 | 0.00 | 0.00 | 0.00 | 9 | 1012.5 |
| 20260502233038 | 21 | 80 | 3.2 | 16.1 | 0.00 | 0.00 | 0.00 | 9 | 1012.6 |
| 20260502232534 | 21 | 30 | 8.0 | 16.1 | 0.00 | 0.00 | 0.00 | 9 | 1012.5 |
| 20260502232033 | 21 | 73 | 4.8 | 17.7 | 0.00 | 0.00 | 0.00 | 9 | 1012.6 |
| 20260502231535 | 21 | 67 | 1.6 | 11.3 | 0.00 | 0.00 | 0.00 | 9 | 1012.7 |
| 20260502231033 | 21 | 118 | 3.2 | 17.7 | 0.00 | 0.00 | 0.00 | 10 | 1012.7 |
| 20260502230533 | 21 | 343 | 8.0 | 17.7 | 0.00 | 0.00 | 0.00 | 9 | 1012.8 |
| 20260502230032 | 21 | 45 | 3.2 | 14.5 | 0.00 | 0.00 | 0.00 | 9 | 1012.8 |
| 20260502225532 | 21 | 50 | 9.7 | 16.1 | 0.00 | 0.00 | 0.00 | 9 | 1012.9 |
| 20260502225032 | 21 | 44 | 9.7 | 16.1 | 0.00 | 0.00 | 0.00 | 9 | 1012.9 |
| 20260502224531 | 21 | 75 | 8.0 | 16.1 | 0.00 | 0.00 | 0.00 | 9 | 1012.8 |
| 20260502224030 | 21 | 65 | 4.8 | 16.1 | 0.00 | 0.00 | 0.00 | 9 | 1013.0 |
| 20260502223531 | 21 | 118 | 4.8 | 19.3 | 0.00 | 0.00 | 0.00 | 9 | 1013.0 |
| 20260502223030 | 21 | 65 | 8.0 | 19.3 | 0.00 | 0.00 | 0.00 | 9 | 1013.1 |
| 20260502222529 | 22 | 46 | 8.0 | 16.1 | 0.00 | 0.00 | 0.00 | 9 | 1013.1 |
| 20260502222028 | 22 | 96 | 9.7 | 16.1 | 0.00 | 0.00 | 0.00 | 9 | 1013.3 |
| 20260502221528 | 21 | 96 | 8.0 | 17.7 | 0.00 | 0.00 | 0.00 | 10 | 1013.3 |
| 20260502221030 | 21 | 70 | 9.7 | 17.7 | 0.00 | 0.00 | 0.00 | 9 | 1013.3 |
| 20260502220527 | 21 | 51 | 6.4 | 16.1 | 0.00 | 0.00 | 0.00 | 10 | 1013.4 |
| 20260502220030 | 21 | 83 | 9.7 | 16.1 | 0.00 | 0.00 | 0.00 | 10 | 1013.4 |
| 20260502215525 | 21 | 52 | 4.8 | 16.1 | 0.00 | 0.00 | 0.00 | 10 | 1013.6 |
| 20260502215024 | 21 | 65 | 8.0 | 16.1 | 0.00 | 0.00 | 0.00 | 10 | 1013.6 |
| 20260502214523 | 22 | 58 | 6.4 | 12.9 | 0.00 | 0.00 | 0.00 | 10 | 1013.7 |
| 20260502214022 | 21 | 123 | 3.2 | 16.1 | 0.00 | 0.00 | 0.00 | 10 | 1013.9 |
| 20260502213521 | 21 | 83 | 6.4 | 16.1 | 0.00 | 0.00 | 0.00 | 11 | 1014.0 |
| 20260502213025 | 21 | 94 | 8.0 | 16.1 | 0.00 | 0.00 | 0.00 | 12 | 1014.1 |
| 20260502212520 | 21 | 53 | 6.4 | 16.1 | 0.00 | 0.00 | 0.00 | 12 | 1014.2 |
| 20260502212020 | 21 | 360 | 3.2 | 20.9 | 0.00 | 0.00 | 0.00 | 11 | 1014.3 |
| 20260502211518 | 21 | 105 | 8.0 | 20.9 | 0.00 | 0.00 | 0.00 | 11 | 1014.3 |
| 20260502211017 | 21 | 59 | 11.3 | 22.5 | 0.00 | 0.00 | 0.00 | 13 | 1014.4 |
| 20260502210516 | 21 | 111 | 9.7 | 19.3 | 0.00 | 0.00 | 0.00 | 12 | 1014.5 |
| 20260502210016 | 22 | 89 | 3.2 | 16.1 | 0.00 | 0.00 | 0.00 | 14 | 1014.6 |
| 20260502205516 | 21 | 122 | 6.4 | 19.3 | 0.00 | 0.00 | 0.00 | 14 | 1014.8 |
| 20260502205015 | 21 | 112 | 8.0 | 19.3 | 0.00 | 0.00 | 0.00 | 13 | 1014.9 |
| 20260502204522 | 21 | 119 | 8.0 | 14.5 | 0.00 | 0.00 | 0.00 | 14 | 1014.9 |
| 20260502204014 | 21 | 101 | 1.6 | 12.9 | 0.00 | 0.00 | 0.00 | 13 | 1015.0 |
| 20260502203513 | 21 | 51 | 1.6 | 17.7 | 0.00 | 0.00 | 0.00 | 13 | 1015.1 |
| 20260502203016 | 21 | 77 | 8.0 | 17.7 | 0.00 | 0.00 | 0.00 | 13 | 1015.1 |
| 20260502202514 | 20 | 66 | 1.6 | 16.1 | 0.00 | 0.00 | 0.00 | 14 | 1015.1 |
| 20260502202012 | 21 | 40 | 8.0 | 16.1 | 0.00 | 0.00 | 0.00 | 14 | 1015.2 |
| 20260502201514 | 21 | 9 | 8.0 | 14.5 | 0.00 | 0.00 | 0.00 | 14 | 1015.2 |
| 20260502201014 | 21 | 10 | 3.2 | 14.5 | 0.00 | 0.00 | 0.00 | 14 | 1015.4 |
| 20260502200612 | 20 | 30 | 6.4 | 19.3 | 0.00 | 0.00 | 0.00 | 14 | 1015.4 |
| 20260502200010 | 20 | 88 | 9.7 | 19.3 | 0.00 | 0.00 | 0.00 | 14 | 1015.4 |
| 20260502195514 | 20 | 43 | 3.2 | 9.7 | 0.00 | 0.00 | 0.00 | 15 | 1015.5 |
| 20260502195009 | 21 | 67 | 3.2 | 12.9 | 0.00 | 0.00 | 0.00 | 15 | 1015.6 |
| 20260502194507 | 20 | 147 | 3.2 | 19.3 | 0.00 | 0.00 | 0.00 | 14 | 1015.8 |
| 20260502194009 | 20 | 92 | 8.0 | 20.9 | 0.00 | 0.00 | 0.00 | 15 | 1015.8 |
| 20260502193507 | 20 | 92 | 8.0 | 20.9 | 0.00 | 0.00 | 0.00 | 16 | 1015.8 |
| 20260502193006 | 20 | 360 | 4.8 | 19.3 | 0.00 | 0.00 | 0.00 | 15 | 1015.9 |
| 20260502192506 | 20 | 76 | 8.0 | 19.3 | 0.00 | 0.00 | 0.00 | 15 | 1016.0 |
| 20260502192008 | 21 | 26 | 4.8 | 12.9 | 0.00 | 0.00 | 0.00 | 17 | 1016.1 |
| 20260502191511 | 20 | 28 | 4.8 | 8.0 | 0.00 | 0.00 | 0.00 | 15 | 1016.2 |
| 20260502191004 | 20 | 12 | 1.6 | 14.5 | 0.00 | 0.00 | 0.00 | 15 | 1016.3 |
| 20260502190503 | 20 | 360 | 3.2 | 14.5 | 0.00 | 0.00 | 0.00 | 16 | 1016.4 |
| 20260502190005 | 19 | 360 | 3.2 | 9.7 | 0.00 | 0.00 | 0.00 | 15 | 1016.5 |
| 20260502185502 | 19 | 60 | 4.8 | 12.9 | 0.00 | 0.00 | 0.00 | 15 | 1016.7 |
| 20260502185100 | 20 | 128 | 6.4 | 12.9 | 0.00 | 0.00 | 0.00 | 15 | 1016.6 |
| 20260502184600 | 20 | 265 | 3.2 | 6.4 | 0.00 | 0.00 | 0.00 | 16 | 1016.7 |
| 20260502184059 | 20 | 106 | 1.6 | 6.4 | 0.00 | 0.00 | 0.00 | 16 | 1016.8 |
| 20260502183559 | 19 | 360 | 1.6 | 16.1 | 0.00 | 0.00 | 0.00 | 17 | 1016.8 |
| 20260502183057 | 18 | 63 | 3.2 | 16.1 | 0.00 | 0.00 | 0.00 | 16 | 1017.0 |
| 20260502182556 | 19 | 57 | 1.6 | 6.4 | 0.00 | 0.00 | 0.00 | 16 | 1017.0 |
| 20260502182056 | 20 | 242 | 1.6 | 6.4 | 0.00 | 0.00 | 0.00 | 20 | 1017.1 |
| 20260502181555 | 20 | 211 | 1.6 | 8.0 | 0.00 | 0.00 | 0.00 | 16 | 1017.2 |
| 20260502181054 | 18 | 22 | 3.2 | 17.7 | 0.00 | 0.00 | 0.00 | 18 | 1017.2 |
| 20260502180553 | 18 | 9 | 8.0 | 17.7 | 0.00 | 0.00 | 0.00 | 17 | 1017.4 |
| 20260502164043 | 17 | 63 | 3.2 | 8.0 | 0.00 | 0.00 | 0.00 | 18 | 1018.4 |
| 20260502163541 | 17 | 248 | 1.6 | 8.0 | 0.00 | 0.00 | 0.00 | 19 | 1018.5 |
| 20260502163047 | 17 | 254 | 3.2 | 8.0 | 0.00 | 0.00 | 0.00 | 20 | 1018.5 |
| 20260502162540 | 16 | 46 | 1.6 | 8.0 | 0.00 | 0.00 | 0.00 | 21 | 1018.6 |
| 20260502162039 | 17 | 200 | 3.2 | 8.0 | 0.00 | 0.00 | 0.00 | 20 | 1018.5 |
| 20260502161538 | 17 | 243 | 3.2 | 8.0 | 0.00 | 0.00 | 0.00 | 21 | 1018.6 |
| 20260502161037 | 17 | 252 | 0.0 | 6.4 | 0.00 | 0.00 | 0.00 | 22 | 1018.7 |
| 20260502160536 | 16 | 279 | 1.6 | 6.4 | 0.00 | 0.00 | 0.00 | 25 | 1018.8 |
| 20260502152028 | 14 | 130 | 1.6 | 11.3 | 0.00 | 0.00 | 0.00 | 31 | 1019.2 |
| 20260502151536 | 13 | 254 | 0.0 | 6.4 | 0.00 | 0.00 | 0.00 | 32 | 1019.2 |
| 20260502151026 | 13 | 76 | 1.6 | 6.4 | 0.00 | 0.00 | 0.00 | 33 | 1019.3 |
| 20260502150525 | 12 | 229 | 1.6 | 6.4 | 0.00 | 0.00 | 0.00 | 34 | 1019.3 |
| 20260502130503 | 2 | 360 | 1.6 | 4.8 | 0.00 | 0.00 | 0.00 | 63 | 1020.0 |
| 20260502123500 | 0 | 360 | 0.0 | 0.0 | 0.00 | 0.00 | 0.00 | 71 | 1019.8 |
| 20260502123103 | 0 | 360 | 0.0 | 0.0 | 0.00 | 0.00 | 0.00 | 71 | 1019.8 |
| 20260502122601 | 0 | 163 | 0.0 | 0.0 | 0.00 | 0.00 | 0.00 | 73 | 1019.7 |
| 20260502122059 | 0 | 147 | 0.0 | 0.0 | 0.00 | 0.00 | 0.00 | 75 | 1019.8 |
| 20260502121559 | 0 | 360 | 0.0 | 0.0 | 0.00 | 0.00 | 0.00 | 74 | 1019.7 |
| 20260502121059 | -1 | 360 | 0.0 | 1.6 | 0.00 | 0.00 | 0.00 | 75 | 1019.7 |
| 20260502120559 | 0 | 360 | 0.0 | 1.6 | 0.00 | 0.00 | 0.00 | 74 | 1019.7 |
| 20260502115557 | 0 | 360 | 0.0 | 1.6 | 0.00 | 0.00 | 0.00 | 75 | 1019.7 |
| 20260502115101 | 0 | 360 | 0.0 | 0.0 | 0.00 | 0.00 | 0.00 | 75 | 1019.7 |
| 20260502114556 | 0 | 360 | 0.0 | 0.0 | 0.00 | 0.00 | 0.00 | 74 | 1019.6 |
| 20260502114056 | 0 | 360 | 0.0 | 0.0 | 0.00 | 0.00 | 0.00 | 74 | 1019.7 |
| 20260502113553 | 0 | 360 | 0.0 | 0.0 | 0.00 | 0.00 | 0.00 | 74 | 1019.7 |
| 20260502113053 | 0 | 360 | 0.0 | 0.0 | 0.00 | 0.00 | 0.00 | 74 | 1019.7 |
| 20260502112551 | 0 | 360 | 0.0 | 0.0 | 0.00 | 0.00 | 0.00 | 73 | 1019.7 |
| 20260502112050 | 0 | 311 | 0.0 | 0.0 | 0.00 | 0.00 | 0.00 | 72 | 1019.7 |
| 20260502111554 | 0 | 331 | 0.0 | 0.0 | 0.00 | 0.00 | 0.00 | 72 | 1019.7 |
| 20260502111049 | 0 | 310 | 0.0 | 0.0 | 0.00 | 0.00 | 0.00 | 71 | 1019.7 |
| 20260502110548 | 1 | 333 | 0.0 | 0.0 | 0.00 | 0.00 | 0.00 | 71 | 1019.7 |
| 20260502110050 | 1 | 334 | 0.0 | 1.6 | 0.00 | 0.00 | 0.00 | 70 | 1019.7 |
| 20260502105548 | 1 | 326 | 0.0 | 1.6 | 0.00 | 0.00 | 0.00 | 72 | 1019.7 |
| 20260502105047 | 1 | 333 | 0.0 | 0.0 | 0.00 | 0.00 | 0.00 | 71 | 1019.7 |
| 20260502104546 | 1 | 336 | 0.0 | 0.0 | 0.00 | 0.00 | 0.00 | 70 | 1019.7 |
| 20260502104046 | 1 | 298 | 0.0 | 0.0 | 0.00 | 0.00 | 0.00 | 69 | 1019.7 |
| 20260502103546 | 1 | 310 | 0.0 | 0.0 | 0.00 | 0.00 | 0.00 | 69 | 1019.7 |
| 20260502103045 | 1 | 310 | 0.0 | 1.6 | 0.00 | 0.00 | 0.00 | 68 | 1019.7 |
| 20260502102545 | 1 | 307 | 0.0 | 1.6 | 0.00 | 0.00 | 0.00 | 69 | 1019.8 |
| 20260502102044 | 1 | 304 | 0.0 | 0.0 | 0.00 | 0.00 | 0.00 | 69 | 1019.5 |
| 20260502101547 | 1 | 307 | 0.0 | 0.0 | 0.00 | 0.00 | 0.00 | 68 | 1019.5 |
| 20260502101041 | 1 | 298 | 0.0 | 0.0 | 0.00 | 0.00 | 0.00 | 68 | 1019.3 |
| 20260502100542 | 1 | 302 | 0.0 | 1.6 | 0.00 | 0.00 | 0.00 | 68 | 1019.3 |
| 20260502091532 | 2 | 360 | 0.0 | 0.0 | 0.00 | 0.00 | 0.00 | 65 | 1019.1 |
| 20260502091031 | 3 | 360 | 0.0 | 0.0 | 0.00 | 0.00 | 0.00 | 65 | 1019.1 |
| 20260502090530 | 3 | 360 | 0.0 | 1.6 | 0.00 | 0.00 | 0.00 | 64 | 1019.1 |
| 20260502071514 | 5 | 360 | 0.0 | 0.0 | 0.00 | 0.00 | 0.00 | 52 | 1019.3 |
| 20260502071014 | 5 | 360 | 0.0 | 0.0 | 0.00 | 0.00 | 0.00 | 52 | 1019.3 |
| 20260502070514 | 5 | 360 | 0.0 | 0.0 | 0.00 | 0.00 | 0.00 | 52 | 1019.3 |
| 20260502070016 | 5 | 360 | 0.0 | 0.0 | 0.00 | 0.00 | 0.00 | 51 | 1019.3 |
| 20260502065513 | 5 | 360 | 0.0 | 0.0 | 0.00 | 0.00 | 0.00 | 51 | 1019.3 |
| 20260502065016 | 5 | 360 | 0.0 | 0.0 | 0.00 | 0.00 | 0.00 | 51 | 1019.4 |
| 20260502064518 | 5 | 360 | 0.0 | 0.0 | 0.00 | 0.00 | 0.00 | 51 | 1019.4 |
| 20260502064016 | 5 | 360 | 0.0 | 1.6 | 0.00 | 0.00 | 0.00 | 52 | 1019.4 |
| 20260502063512 | 5 | 360 | 0.0 | 1.6 | 0.00 | 0.00 | 0.00 | 52 | 1019.4 |
| 20260502063014 | 5 | 360 | 0.0 | 0.0 | 0.00 | 0.00 | 0.00 | 52 | 1019.4 |
| 20260502062516 | 5 | 360 | 0.0 | 0.0 | 0.00 | 0.00 | 0.00 | 51 | 1019.5 |
| 20260502062009 | 5 | 360 | 0.0 | 0.0 | 0.00 | 0.00 | 0.00 | 50 | 1019.5 |
| 20260502061509 | 5 | 360 | 0.0 | 0.0 | 0.00 | 0.00 | 0.00 | 50 | 1019.5 |
| 20260502061007 | 5 | 360 | 0.0 | 0.0 | 0.00 | 0.00 | 0.00 | 48 | 1019.5 |
| 20260502060507 | 6 | 360 | 0.0 | 0.0 | 0.00 | 0.00 | 0.00 | 48 | 1019.5 |
| 20260502060006 | 6 | 360 | 0.0 | 0.0 | 0.00 | 0.00 | 0.00 | 47 | 1019.5 |
| 20260502055506 | 6 | 360 | 0.0 | 0.0 | 0.00 | 0.00 | 0.00 | 46 | 1019.5 |
| 20260502055006 | 6 | 360 | 0.0 | 0.0 | 0.00 | 0.00 | 0.00 | 45 | 1019.5 |
| 20260502054506 | 6 | 360 | 0.0 | 0.0 | 0.00 | 0.00 | 0.00 | 46 | 1019.4 |
| 20260502054005 | 6 | 360 | 0.0 | 0.0 | 0.00 | 0.00 | 0.00 | 44 | 1019.4 |
| 20260502053505 | 6 | 360 | 0.0 | 0.0 | 0.00 | 0.00 | 0.00 | 43 | 1019.3 |
| 20260502053005 | 6 | 360 | 0.0 | 0.0 | 0.00 | 0.00 | 0.00 | 43 | 1019.3 |
| 20260502052507 | 6 | 360 | 0.0 | 0.0 | 0.00 | 0.00 | 0.00 | 42 | 1019.3 |
| 20260502052005 | 6 | 360 | 0.0 | 0.0 | 0.00 | 0.00 | 0.00 | 42 | 1019.3 |
| 20260502051505 | 6 | 360 | 0.0 | 0.0 | 0.00 | 0.00 | 0.00 | 42 | 1019.3 |
| 20260502051006 | 6 | 360 | 0.0 | 0.0 | 0.00 | 0.00 | 0.00 | 42 | 1019.3 |
| 20260502050504 | 7 | 360 | 0.0 | 1.6 | 0.00 | 0.00 | 0.00 | 41 | 1019.2 |
| 20260502050005 | 7 | 360 | 0.0 | 1.6 | 0.00 | 0.00 | 0.00 | 42 | 1019.2 |
| 20260502045504 | 7 | 360 | 0.0 | 1.6 | 0.00 | 0.00 | 0.00 | 42 | 1019.2 |
| 20260502045009 | 7 | 360 | 0.0 | 0.0 | 0.00 | 0.00 | 0.00 | 42 | 1019.2 |
| 20260502044504 | 7 | 360 | 0.0 | 0.0 | 0.00 | 0.00 | 0.00 | 41 | 1019.2 |
| 20260502044003 | 7 | 360 | 0.0 | 0.0 | 0.00 | 0.00 | 0.00 | 40 | 1019.2 |
| 20260502043505 | 7 | 360 | 0.0 | 0.0 | 0.00 | 0.00 | 0.00 | 38 | 1019.2 |
| 20260502043002 | 8 | 360 | 0.0 | 1.6 | 0.00 | 0.00 | 0.00 | 38 | 1019.2 |
| 20260502042503 | 8 | 360 | 0.0 | 1.6 | 0.00 | 0.00 | 0.00 | 38 | 1019.1 |
| 20260502042003 | 8 | 360 | 0.0 | 1.6 | 0.00 | 0.00 | 0.00 | 36 | 1019.1 |
| 20260502041505 | 8 | 360 | 0.0 | 1.6 | 0.00 | 0.00 | 0.00 | 36 | 1019.1 |
| 20260502041002 | 8 | 360 | 0.0 | 1.6 | 0.00 | 0.00 | 0.00 | 35 | 1019.1 |
| 20260502040502 | 9 | 360 | 0.0 | 1.6 | 0.00 | 0.00 | 0.00 | 34 | 1019.0 |
| 20260502040005 | 8 | 360 | 0.0 | 1.6 | 0.00 | 0.00 | 0.00 | 35 | 1018.9 |
| 20260502035502 | 8 | 360 | 0.0 | 1.6 | 0.00 | 0.00 | 0.00 | 35 | 1018.9 |
| 20260502035002 | 8 | 360 | 0.0 | 0.0 | 0.00 | 0.00 | 0.00 | 35 | 1018.9 |
| 20260502034502 | 9 | 360 | 0.0 | 0.0 | 0.00 | 0.00 | 0.00 | 34 | 1018.8 |
| 20260502034001 | 9 | 360 | 0.0 | 0.0 | 0.00 | 0.00 | 0.00 | 33 | 1018.7 |
| 20260502033501 | 10 | 360 | 0.0 | 1.6 | 0.00 | 0.00 | 0.00 | 32 | 1018.7 |
| 20260502033002 | 10 | 360 | 0.0 | 1.6 | 0.00 | 0.00 | 0.00 | 31 | 1018.6 |
| 20260502032504 | 10 | 360 | 0.0 | 1.6 | 0.00 | 0.00 | 0.00 | 31 | 1018.4 |
| 20260502032001 | 11 | 360 | 0.0 | 3.2 | 0.00 | 0.00 | 0.00 | 29 | 1018.4 |
| 20260502031502 | 11 | 360 | 0.0 | 3.2 | 0.00 | 0.00 | 0.00 | 29 | 1018.3 |
| 20260502031002 | 11 | 360 | 0.0 | 3.2 | 0.00 | 0.00 | 0.00 | 29 | 1018.3 |
| 20260502030602 | 11 | 360 | 0.0 | 3.2 | 0.00 | 0.00 | 0.00 | 29 | 1018.3 |